Showing default

YURI (BSE), 10792

Orbit data source: Space-Track

YURI (BSE), 10792 is a payload satellite owned by NASDA (JP) in GEO that was launched on Fri, 07 Apr 1978 UTC via a DELTA 2914 launch vehicle from the Air Force Eastern Test Range (AFETR). Payloads include a variety of satellites, spacecraft, and rockets equipped with specific instruments for various scientific and technological missions. These include communications satellites like Starlink; space stations such as the ISS; scientific satellites like the Hubble; Earth observation satellites from companies like Planet Labs, Umbra, and HawkEye 360; GPS; miniature CubeSats for education and research; and military/defense satellites.

Not visible in the next 10 days
YURI (BSE) details
Identifier
10792, 1978-039A
Orbit
GEO
Last TLE update9 hours ago
Origin
Flag of JPNASDA (JP / JPN)
ManufacturerGEVF/TOSH
MissionNon-operational Civil Communications
Bus & MotorBS, STAR 27
Mass678 kg wet, ~295 kg dry
Launch date (UTC)
1978-04-07 (47 years ago)
Launch vehicle
DELTA 2914
Launch site
Air Force Eastern Test Range (AFETR)
Object type
Payload
Rocket body
Debris
Shape & HBRHex Poly + 2 Pan, 3.09 m
Radar Cross Section2.497 m², Large (>1 m²)

Expand to show TLE details & history

TLE from 9 hours ago
0 YURI (BSE)
1 10792U 78039A   24325.88040532  .00000003  00000-0  00000-0 0  9995
2 10792   6.9037 290.1401 0021724 304.0338 206.2667  1.00340519113018
Epoch: 2024-11-20T21:07Z
Definitive object data (Epoch: 2024-11-20T21:07:47.019Z)
Latitude3.43895°
Longitude63.16915°
Altitude35,849.01 km
Speed3.069 km/s
True Right ascension05h 21m 56s
True Declination3° 26' 08"
Sunlit
Object was in daylight at TLE epoch
Visualization TLE readout
Latitude-6.46136°
Longitude-155.97695°
Altitude35,678.34 km
Speed3.082 km/s
Apparent Right ascension14h 50m 12s
Apparent Declination-10° 41' 34"
Sunlit
Object is in daylight
Visualization observer readout
Local Sidereal Time03:31:46
Azimuth20.352° NNE
Elevation-59.357°
Doppler factor1
Orbital elements
Apogee altitude35,859.945 km
Perigee altitude35,676.826 km
Semi-major axis42,146.523 km
Eccentricity0.0021724
Inclination6.9037°
RAAN290.1401°
Arg. of periapsis304.0338°
True anomaly206.1568°
Mean anomaly206.2667°
Eccentric anomaly206.21172°
Mean motion0.25084 °/min
BSTARUnknown
Orbital period1435.17 mins
Loading historical data...
10792 neighbors
Authenticating...
Loading maneuver chart data...
Loading historical data...
Loading historical data...
Loading historical data...
Loading historical data...
Loading historical data...
Loading historical data...
Loading historical data...
Other satellites on launch #39 in the year 1978 (1978-04-07 UTC)

YURI (BSE) Visibility forecast

Observer location: undefined°, undefined

YURI (BSE) is not visible in the next 10 days
Span
Click to sort rows by Start time (UTC) header in descending order
Start Az.
Max El. time (UTC)
Max El. Az.
Max El.
End time (UTC)
End Az.
|